Date,TemperatureHighF,TemperatureAvgF,TemperatureLowF,DewpointHighF,DewpointAvgF,DewpointLowF,HumidityHigh,HumidityAvg,HumidityLow,PressureMaxIn,PressureMinIn,WindSpeedMaxMPH,WindSpeedAvgMPH,GustSpeedMaxMPH,PrecipitationSumIn
2013-10-1,72,61,53,47,44,41,69,54,39,29.90,29.82,4,1,10,0.00
2013-10-2,71,60,52,48,41,33,73,52,29,29.90,29.82,4,1,11,0.00
2013-10-3,65,56,48,36,31,24,55,40,26,29.89,29.83,4,1,13,0.00
2013-10-4,69,56,46,32,28,22,46,34,22,30.10,29.89,4,1,12,0.00
2013-10-5,73,61,51,29,22,16,39,23,13,30.18,30.10,4,1,12,0.00
2013-10-6,76,63,53,28,24,20,33,24,13,30.11,29.96,4,1,13,0.00
2013-10-7,76,64,56,27,22,17,27,20,12,29.96,29.80,4,1,11,0.00
2013-10-8,71,60,50,29,24,19,37,26,17,29.81,29.61,5,1,12,0.00
2013-10-9,54,46,40,42,36,25,94,73,33,29.73,29.50,3,0,12,0.20
2013-10-10,59,48,39,42,40,37,94,75,49,30.00,29.73,3,1,7,0.00
2013-10-11,66,54,44,42,38,36,81,59,36,30.04,29.93,3,1,10,0.00
2013-10-12,66,55,46,39,36,33,68,51,33,29.96,29.84,4,1,11,0.00
2013-10-13,64,53,45,39,36,34,67,53,37,30.01,29.82,4,1,11,0.00
2013-10-14,67,55,46,38,36,33,66,50,29,30.08,29.97,4,1,11,0.00
2013-10-15,68,57,48,38,35,33,60,45,30,30.00,29.93,4,1,11,0.00
2013-10-16,71,60,51,34,28,24,47,31,19,30.08,29.99,4,1,14,0.00
2013-10-17,71,59,50,32,29,26,42,33,23,30.02,29.92,4,1,11,0.00
2013-10-18,76,62,51,32,27,19,43,29,13,30.02,29.94,3,1,10,0.00
2013-10-19,76,63,53,28,22,16,29,21,14,30.03,29.95,4,1,11,0.00
2013-10-20,74,61,52,32,26,21,36,27,15,29.97,29.86,3,1,10,0.00
2013-10-21,77,64,54,33,28,18,37,27,15,29.93,29.87,3,1,10,0.00
2013-10-22,79,66,56,28,21,14,29,18,9,29.95,29.85,4,1,10,0.00
2013-10-23,76,63,54,34,25,19,40,25,12,29.87,29.81,3,1,10,0.00
2013-10-24,72,61,54,38,32,27,49,35,22,30.00,29.86,4,1,12,0.00
2013-10-25,72,60,51,40,37,32,57,43,27,30.08,29.99,4,1,9,0.00
2013-10-26,76,62,52,38,34,26,58,36,22,30.08,29.97,3,0,8,0.00
2013-10-27,70,58,41,38,31,22,87,39,24,29.97,29.53,6,1,13,0.00
2013-10-28,45,38,35,40,36,34,95,92,82,29.89,29.57,6,1,16,0.85
2013-10-29,50,42,35,40,36,32,92,80,60,30.02,29.89,1,0,7,0.00
2013-10-30,57,45,36,38,36,33,89,71,48,30.12,30.01,2,0,8,0.00
2013-10-31,64,50,41,40,36,22,81,59,21,30.16,30.08,1,0,8,0.00